Language: 


Des rapports , des résumés tant et plus, au choix de chacun....


Données statistiques de la station
Quotidien Rapport Janvier 31, 2017 Unités:  Métrique    Anglais   les deux
« Précédent Jour
Suivant Jour »
Quotidien Hebdomadaire Mensuel Annuel Actuel
  Haut: Bas: Moyen:
Température: 5.7 °C 0.0 °C 4.3 °C
Pt de rosée: 5.4 °C 3.1 °C 3.7 °C
Humidité: 98 % 0 % 95 %
Vitesse du vent: 16.3 km/h 0.0 km/h 8.1 km/h
Rafales: 16.9 km/h - -
Vent:- - East
Pression: 1016.1 hPa 1013.1 hPa -
Précipitation: 0.0 mm    
Historical Graphs
 
 
Données statistiques pour Janvier 31, 2017
Heure Température Point de rosée Pression Vent Vitesse du vent Refales Humidité Pluie (taux horaire)
00:02 5.7 °C 5.4 °C 1013.1 hPa ENE 5.8 km/h 7.6 km/h 98 % 0.0 mm
00:07 5.7 °C 5.4 °C 1014.1 hPa ENE 5.0 km/h 8.7 km/h 98 % 0.0 mm
00:12 5.7 °C 5.4 °C 1014.1 hPa NE 5.0 km/h 8.7 km/h 98 % 0.0 mm
00:17 5.6 °C 5.3 °C 1014.1 hPa ENE 6.9 km/h 7.6 km/h 98 % 0.0 mm
00:22 5.6 °C 5.3 °C 1013.1 hPa ENE 5.5 km/h 9.3 km/h 98 % 0.0 mm
00:27 5.6 °C 5.2 °C 1013.1 hPa ENE 8.7 km/h 9.3 km/h 97 % 0.0 mm
00:32 5.6 °C 5.2 °C 1013.1 hPa ENE 9.7 km/h 11.1 km/h 97 % 0.0 mm
00:37 5.6 °C 5.2 °C 1013.1 hPa NE 6.9 km/h 11.1 km/h 97 % 0.0 mm
00:42 5.6 °C 5.2 °C 1013.1 hPa East 5.8 km/h 10.5 km/h 97 % 0.0 mm
00:47 5.6 °C 5.2 °C 1013.1 hPa ENE 5.8 km/h 9.7 km/h 97 % 0.0 mm
00:52 5.5 °C 5.1 °C 1014.1 hPa ENE 6.4 km/h 9.7 km/h 97 % 0.0 mm
00:57 5.5 °C 5.1 °C 1014.1 hPa East 7.9 km/h 9.3 km/h 97 % 0.0 mm
01:02 5.5 °C 5.1 °C 1014.1 hPa East 7.9 km/h 9.3 km/h 97 % 0.0 mm
01:07 5.5 °C 5.1 °C 1013.1 hPa ENE 5.8 km/h 10.5 km/h 97 % 0.0 mm
01:12 5.4 °C 4.9 °C 1013.1 hPa ENE 5.0 km/h 10.5 km/h 97 % 0.0 mm
01:17 5.4 °C 4.9 °C 1013.1 hPa ENE 5.8 km/h 8.7 km/h 97 % 0.0 mm
01:22 5.4 °C 4.9 °C 1014.1 hPa NE 5.8 km/h 6.9 km/h 97 % 0.0 mm
01:27 5.3 °C 4.8 °C 1014.1 hPa ENE 6.1 km/h 6.9 km/h 97 % 0.0 mm
01:32 5.3 °C 4.8 °C 1014.1 hPa ENE 10.5 km/h 10.5 km/h 97 % 0.0 mm
01:37 5.3 °C 4.8 °C 1013.1 hPa East 9.0 km/h 11.1 km/h 97 % 0.0 mm
01:42 5.3 °C 4.8 °C 1013.1 hPa ENE 6.1 km/h 11.1 km/h 97 % 0.0 mm
01:47 5.3 °C 4.8 °C 1013.1 hPa ENE 9.0 km/h 10.1 km/h 97 % 0.0 mm
01:52 5.3 °C 4.8 °C 1013.1 hPa East 4.3 km/h 9.3 km/h 97 % 0.0 mm
01:57 5.3 °C 4.8 °C 1013.1 hPa ENE 6.4 km/h 9.3 km/h 97 % 0.0 mm
02:02 0.0 °C 4.9 °C 1013.1 hPa NE 6.4 km/h 6.4 km/h 0 % 0.0 mm
02:07 5.2 °C 4.8 °C 1014.1 hPa ENE 5.5 km/h 6.9 km/h 97 % 0.0 mm
02:12 5.2 °C 4.8 °C 1014.1 hPa East 5.0 km/h 6.9 km/h 97 % 0.0 mm
02:17 5.2 °C 4.8 °C 1014.1 hPa ENE 7.6 km/h 7.9 km/h 97 % 0.0 mm
02:22 5.2 °C 4.8 °C 1013.1 hPa ENE 6.1 km/h 8.7 km/h 97 % 0.0 mm
02:27 5.1 °C 4.7 °C 1013.1 hPa ENE 6.4 km/h 9.0 km/h 97 % 0.0 mm
02:32 5.1 °C 4.7 °C 1013.1 hPa ENE 6.1 km/h 9.7 km/h 97 % 0.0 mm
02:37 5.1 °C 4.7 °C 1013.1 hPa East 7.6 km/h 9.7 km/h 97 % 0.0 mm
02:42 5.0 °C 4.6 °C 1013.1 hPa ENE 7.9 km/h 9.7 km/h 97 % 0.0 mm
02:47 5.1 °C 4.7 °C 1013.1 hPa NE 9.7 km/h 10.5 km/h 97 % 0.0 mm
02:52 5.0 °C 4.6 °C 1013.1 hPa ENE 5.8 km/h 10.5 km/h 97 % 0.0 mm
02:57 5.0 °C 4.6 °C 1013.1 hPa East 6.1 km/h 10.5 km/h 97 % 0.0 mm
03:10 4.9 °C 4.3 °C 1013.1 hPa ENE 9.7 km/h 10.5 km/h 96 % 0.0 mm
03:15 4.9 °C 4.3 °C 1013.1 hPa ENE 7.9 km/h 10.5 km/h 96 % 0.0 mm
03:20 4.9 °C 4.3 °C 1013.1 hPa ENE 9.0 km/h 11.9 km/h 96 % 0.0 mm
03:25 4.9 °C 4.3 °C 1013.1 hPa East 6.9 km/h 11.9 km/h 96 % 0.0 mm
03:30 4.9 °C 4.3 °C 1013.1 hPa East 9.7 km/h 12.6 km/h 96 % 0.0 mm
03:35 4.9 °C 4.3 °C 1013.1 hPa East 6.4 km/h 12.6 km/h 96 % 0.0 mm
03:40 4.9 °C 4.3 °C 1013.1 hPa ENE 9.7 km/h 10.1 km/h 96 % 0.0 mm
03:45 4.9 °C 4.3 °C 1013.1 hPa NE 5.8 km/h 9.7 km/h 96 % 0.0 mm
03:50 4.9 °C 4.3 °C 1013.1 hPa East 6.1 km/h 10.1 km/h 96 % 0.0 mm
03:55 4.8 °C 4.2 °C 1013.1 hPa ENE 6.9 km/h 10.1 km/h 96 % 0.0 mm
04:00 4.8 °C 4.2 °C 1013.1 hPa ENE 9.0 km/h 9.7 km/h 96 % 0.0 mm
04:05 4.8 °C 4.2 °C 1013.1 hPa East 5.8 km/h 13.7 km/h 96 % 0.0 mm
04:10 4.7 °C 4.1 °C 1013.1 hPa East 4.0 km/h 13.7 km/h 96 % 0.0 mm
04:15 4.7 °C 4.1 °C 1013.1 hPa East 7.6 km/h 9.3 km/h 96 % 0.0 mm
04:20 4.7 °C 4.1 °C 1013.1 hPa East 4.3 km/h 9.3 km/h 96 % 0.0 mm
04:25 4.7 °C 4.1 °C 1013.1 hPa East 7.6 km/h 10.1 km/h 96 % 0.0 mm
04:30 4.7 °C 4.1 °C 1013.1 hPa ENE 4.3 km/h 10.1 km/h 96 % 0.0 mm
04:35 4.7 °C 4.1 °C 1013.1 hPa NE 6.4 km/h 7.9 km/h 96 % 0.0 mm
04:40 4.7 °C 4.1 °C 1013.1 hPa ENE 4.7 km/h 9.3 km/h 96 % 0.0 mm
04:45 4.7 °C 4.1 °C 1013.1 hPa ENE 5.5 km/h 9.3 km/h 96 % 0.0 mm
04:50 4.7 °C 4.1 °C 1013.1 hPa East 5.0 km/h 10.5 km/h 96 % 0.0 mm
04:55 4.7 °C 4.1 °C 1013.1 hPa ENE 5.8 km/h 10.5 km/h 96 % 0.0 mm
05:00 4.7 °C 4.1 °C 1013.1 hPa NE 6.4 km/h 10.1 km/h 96 % 0.0 mm
05:05 4.7 °C 4.1 °C 1013.1 hPa NE 10.1 km/h 10.1 km/h 96 % 0.0 mm
05:10 4.7 °C 4.1 °C 1013.1 hPa NE 5.5 km/h 10.1 km/h 96 % 0.0 mm
05:15 4.7 °C 4.3 °C 1013.1 hPa East 5.8 km/h 10.1 km/h 97 % 0.0 mm
05:20 4.6 °C 4.0 °C 1013.1 hPa ENE 5.5 km/h 10.1 km/h 96 % 0.0 mm
05:25 4.6 °C 4.0 °C 1014.1 hPa ENE 4.3 km/h 9.7 km/h 96 % 0.0 mm
05:30 4.6 °C 4.0 °C 1014.1 hPa ENE 9.3 km/h 10.5 km/h 96 % 0.0 mm
05:35 4.6 °C 4.0 °C 1014.1 hPa East 5.8 km/h 10.5 km/h 96 % 0.0 mm
05:40 4.5 °C 3.9 °C 1013.1 hPa East 5.0 km/h 10.1 km/h 96 % 0.0 mm
05:45 4.5 °C 3.9 °C 1013.1 hPa NE 5.8 km/h 10.5 km/h 96 % 0.0 mm
05:50 4.5 °C 3.9 °C 1013.1 hPa ENE 6.1 km/h 10.5 km/h 96 % 0.0 mm
05:55 4.4 °C 3.8 °C 1014.1 hPa East 6.4 km/h 10.5 km/h 96 % 0.0 mm
06:00 4.4 °C 3.8 °C 1014.1 hPa ENE 7.9 km/h 13.7 km/h 96 % 0.0 mm
06:05 4.3 °C 3.7 °C 1014.1 hPa East 7.9 km/h 13.7 km/h 96 % 0.0 mm
06:10 4.3 °C 3.7 °C 1014.1 hPa ENE 9.3 km/h 13.7 km/h 96 % 0.0 mm
06:15 4.2 °C 3.6 °C 1014.1 hPa East 9.7 km/h 11.1 km/h 96 % 0.0 mm
06:20 4.2 °C 3.6 °C 1014.1 hPa East 7.6 km/h 11.9 km/h 96 % 0.0 mm
06:25 4.1 °C 3.6 °C 1013.1 hPa ENE 11.9 km/h 11.9 km/h 96 % 0.0 mm
06:30 4.1 °C 3.6 °C 1013.1 hPa ENE 9.7 km/h 11.9 km/h 96 % 0.0 mm
06:35 4.1 °C 3.6 °C 1013.1 hPa ENE 10.5 km/h 14.3 km/h 96 % 0.0 mm
06:40 4.0 °C 3.4 °C 1014.1 hPa NE 9.0 km/h 14.3 km/h 96 % 0.0 mm
06:45 4.0 °C 3.4 °C 1014.1 hPa ENE 9.0 km/h 12.6 km/h 96 % 0.0 mm
06:50 3.9 °C 3.3 °C 1014.1 hPa NE 9.3 km/h 11.6 km/h 96 % 0.0 mm
06:55 3.9 °C 3.3 °C 1014.1 hPa East 10.5 km/h 12.2 km/h 96 % 0.0 mm
07:00 3.9 °C 3.3 °C 1014.1 hPa East 9.3 km/h 14.0 km/h 96 % 0.0 mm
07:05 3.8 °C 3.4 °C 1014.1 hPa East 9.0 km/h 14.0 km/h 97 % 0.0 mm
07:10 3.8 °C 3.4 °C 1014.1 hPa East 9.3 km/h 14.0 km/h 97 % 0.0 mm
07:15 3.8 °C 3.4 °C 1014.1 hPa East 6.9 km/h 14.0 km/h 97 % 0.0 mm
07:20 3.7 °C 3.3 °C 1014.1 hPa East 5.8 km/h 10.5 km/h 97 % 0.0 mm
07:25 3.7 °C 3.3 °C 1014.1 hPa East 9.7 km/h 9.7 km/h 97 % 0.0 mm
07:30 3.7 °C 3.3 °C 1014.1 hPa East 9.3 km/h 9.7 km/h 97 % 0.0 mm
07:35 3.7 °C 3.3 °C 1014.1 hPa East 6.4 km/h 10.1 km/h 97 % 0.0 mm
07:40 3.7 °C 3.3 °C 1014.1 hPa East 6.4 km/h 11.9 km/h 97 % 0.0 mm
07:45 3.7 °C 3.3 °C 1014.1 hPa ENE 8.7 km/h 12.2 km/h 97 % 0.0 mm
07:50 3.7 °C 3.3 °C 1014.1 hPa East 6.1 km/h 12.2 km/h 97 % 0.0 mm
07:55 3.7 °C 3.3 °C 1014.1 hPa East 6.1 km/h 11.6 km/h 97 % 0.0 mm
08:00 3.7 °C 3.3 °C 1014.1 hPa East 9.3 km/h 10.1 km/h 97 % 0.0 mm
08:05 3.7 °C 3.3 °C 1014.1 hPa ESE 4.7 km/h 10.1 km/h 97 % 0.0 mm
08:10 3.7 °C 3.3 °C 1014.1 hPa ESE 10.1 km/h 12.2 km/h 97 % 0.0 mm
08:15 3.7 °C 3.3 °C 1014.1 hPa East 7.9 km/h 12.2 km/h 97 % 0.0 mm
08:20 3.7 °C 3.3 °C 1014.1 hPa ESE 9.3 km/h 10.5 km/h 97 % 0.0 mm
08:25 3.7 °C 3.3 °C 1014.1 hPa ENE 6.9 km/h 12.6 km/h 97 % 0.0 mm
08:30 3.8 °C 3.4 °C 1014.1 hPa East 6.4 km/h 12.6 km/h 97 % 0.0 mm
08:35 3.8 °C 3.4 °C 1014.1 hPa East 11.9 km/h 11.9 km/h 97 % 0.0 mm
08:40 3.8 °C 3.4 °C 1015.1 hPa ESE 7.6 km/h 11.9 km/h 97 % 0.0 mm
08:45 3.8 °C 3.4 °C 1015.1 hPa East 8.7 km/h 11.1 km/h 97 % 0.0 mm
08:50 3.8 °C 3.4 °C 1015.1 hPa East 9.0 km/h 10.1 km/h 97 % 0.0 mm
08:55 3.8 °C 3.4 °C 1015.1 hPa ENE 11.9 km/h 13.7 km/h 97 % 0.0 mm
09:00 3.7 °C 3.3 °C 1015.1 hPa East 6.4 km/h 13.7 km/h 97 % 0.0 mm
09:05 3.7 °C 3.3 °C 1015.1 hPa East 9.7 km/h 12.2 km/h 97 % 0.0 mm
09:10 3.7 °C 3.3 °C 1015.1 hPa ESE 6.1 km/h 10.1 km/h 97 % 0.0 mm
09:15 3.7 °C 3.3 °C 1015.1 hPa ESE 6.9 km/h 11.6 km/h 97 % 0.0 mm
09:20 3.6 °C 3.2 °C 1015.1 hPa East 9.7 km/h 11.6 km/h 97 % 0.0 mm
09:25 3.6 °C 3.2 °C 1015.1 hPa ESE 5.8 km/h 11.6 km/h 97 % 0.0 mm
09:30 3.6 °C 3.2 °C 1015.1 hPa ESE 6.1 km/h 10.1 km/h 97 % 0.0 mm
09:35 3.6 °C 3.2 °C 1015.1 hPa ESE 6.9 km/h 11.9 km/h 97 % 0.0 mm
09:40 3.6 °C 3.2 °C 1015.1 hPa ESE 13.0 km/h 13.7 km/h 97 % 0.0 mm
09:45 3.6 °C 3.2 °C 1015.1 hPa ESE 9.7 km/h 15.4 km/h 97 % 0.0 mm
09:50 3.6 °C 3.2 °C 1015.1 hPa East 11.9 km/h 15.4 km/h 97 % 0.0 mm
09:55 3.6 °C 3.2 °C 1015.1 hPa ESE 9.3 km/h 13.7 km/h 97 % 0.0 mm
10:00 3.6 °C 3.2 °C 1015.1 hPa East 12.6 km/h 13.7 km/h 97 % 0.0 mm
10:05 3.6 °C 3.2 °C 1015.1 hPa ESE 13.7 km/h 14.0 km/h 97 % 0.0 mm
10:10 3.6 °C 3.2 °C 1015.1 hPa East 7.9 km/h 15.1 km/h 97 % 0.0 mm
10:15 3.6 °C 3.2 °C 1015.1 hPa ESE 9.7 km/h 15.1 km/h 97 % 0.0 mm
10:20 3.7 °C 3.3 °C 1015.1 hPa ENE 5.5 km/h 14.0 km/h 97 % 0.0 mm
10:25 3.8 °C 3.4 °C 1015.1 hPa East 6.9 km/h 14.0 km/h 97 % 0.0 mm
10:30 3.9 °C 3.5 °C 1015.1 hPa East 7.9 km/h 11.6 km/h 97 % 0.0 mm
10:35 3.9 °C 3.3 °C 1015.1 hPa ESE 13.0 km/h 13.0 km/h 96 % 0.0 mm
10:40 3.9 °C 3.3 °C 1014.1 hPa ESE 12.6 km/h 13.7 km/h 96 % 0.0 mm
10:45 3.9 °C 3.3 °C 1014.1 hPa ESE 12.6 km/h 16.6 km/h 96 % 0.0 mm
10:50 3.9 °C 3.3 °C 1014.1 hPa East 12.6 km/h 16.6 km/h 96 % 0.0 mm
10:55 3.9 °C 3.3 °C 1015.1 hPa East 9.0 km/h 15.8 km/h 96 % 0.0 mm
11:00 4.0 °C 3.4 °C 1015.1 hPa ESE 9.3 km/h 15.1 km/h 96 % 0.0 mm
11:05 3.9 °C 3.3 °C 1015.1 hPa ESE 12.2 km/h 15.8 km/h 96 % 0.0 mm
11:10 4.0 °C 3.4 °C 1014.1 hPa SE 9.0 km/h 15.8 km/h 96 % 0.0 mm
11:15 4.0 °C 3.4 °C 1014.1 hPa ESE 7.9 km/h 15.4 km/h 96 % 0.0 mm
11:20 4.0 °C 3.4 °C 1014.1 hPa SE 12.6 km/h 13.7 km/h 96 % 0.0 mm
11:25 4.1 °C 3.6 °C 1014.1 hPa ESE 10.5 km/h 14.0 km/h 96 % 0.0 mm
11:30 4.1 °C 3.6 °C 1014.1 hPa ESE 9.7 km/h 14.0 km/h 96 % 0.0 mm
11:35 4.1 °C 3.6 °C 1014.1 hPa East 12.2 km/h 14.0 km/h 96 % 0.0 mm
11:40 4.1 °C 3.6 °C 1015.1 hPa ESE 13.0 km/h 14.0 km/h 96 % 0.0 mm
11:45 4.2 °C 3.6 °C 1015.1 hPa SE 10.5 km/h 14.0 km/h 96 % 0.0 mm
11:50 4.2 °C 3.6 °C 1015.1 hPa ESE 13.0 km/h 14.0 km/h 96 % 0.0 mm
11:55 4.2 °C 3.6 °C 1014.1 hPa ESE 8.7 km/h 13.0 km/h 96 % 0.0 mm
12:00 4.3 °C 3.7 °C 1014.1 hPa ESE 5.0 km/h 12.2 km/h 96 % 0.0 mm
12:05 4.3 °C 3.6 °C 1014.1 hPa East 9.0 km/h 10.1 km/h 95 % 0.0 mm
12:10 4.3 °C 3.6 °C 1015.1 hPa SE 4.7 km/h 10.1 km/h 95 % 0.0 mm
12:15 4.4 °C 3.8 °C 1015.1 hPa East 4.7 km/h 10.1 km/h 96 % 0.0 mm
12:20 4.5 °C 3.8 °C 1015.1 hPa East 9.3 km/h 10.5 km/h 95 % 0.0 mm
12:25 4.5 °C 3.9 °C 1015.1 hPa East 8.7 km/h 11.6 km/h 96 % 0.0 mm
12:30 4.5 °C 3.9 °C 1015.1 hPa ESE 11.6 km/h 11.9 km/h 96 % 0.0 mm
12:35 4.6 °C 3.9 °C 1015.1 hPa ENE 9.7 km/h 12.6 km/h 95 % 0.0 mm
12:40 4.5 °C 3.8 °C 1014.1 hPa ESE 6.9 km/h 12.6 km/h 95 % 0.0 mm
12:45 4.6 °C 3.9 °C 1014.1 hPa East 6.9 km/h 13.0 km/h 95 % 0.0 mm
12:50 4.6 °C 3.9 °C 1014.1 hPa East 6.4 km/h 13.0 km/h 95 % 0.0 mm
12:55 4.6 °C 3.9 °C 1015.1 hPa SE 7.9 km/h 11.1 km/h 95 % 0.0 mm
13:00 4.6 °C 3.9 °C 1015.1 hPa SE 9.7 km/h 11.9 km/h 95 % 0.0 mm
13:05 4.6 °C 3.9 °C 1015.1 hPa ESE 7.6 km/h 11.9 km/h 95 % 0.0 mm
13:10 4.6 °C 3.9 °C 1015.1 hPa ESE 10.1 km/h 10.5 km/h 95 % 0.0 mm
13:15 4.6 °C 3.9 °C 1015.1 hPa SE 11.9 km/h 12.6 km/h 95 % 0.0 mm
13:20 4.6 °C 3.9 °C 1015.1 hPa ESE 9.3 km/h 13.7 km/h 95 % 0.0 mm
13:25 4.6 °C 3.9 °C 1015.1 hPa ESE 5.8 km/h 13.7 km/h 95 % 0.0 mm
13:30 4.6 °C 3.9 °C 1015.1 hPa SE 10.5 km/h 13.0 km/h 95 % 0.0 mm
13:35 4.6 °C 3.9 °C 1015.1 hPa ESE 8.7 km/h 12.2 km/h 95 % 0.0 mm
13:40 4.7 °C 3.9 °C 1015.1 hPa ESE 11.6 km/h 12.6 km/h 95 % 0.0 mm
13:45 4.7 °C 3.9 °C 1015.1 hPa SE 10.8 km/h 12.6 km/h 95 % 0.0 mm
13:50 4.7 °C 3.9 °C 1015.1 hPa ESE 8.7 km/h 13.7 km/h 95 % 0.0 mm
13:55 4.7 °C 3.9 °C 1015.1 hPa ESE 9.0 km/h 13.7 km/h 95 % 0.0 mm
14:00 4.7 °C 3.9 °C 1015.1 hPa East 8.7 km/h 11.9 km/h 95 % 0.0 mm
14:05 4.7 °C 3.8 °C 1015.1 hPa East 11.9 km/h 16.9 km/h 94 % 0.0 mm
14:10 4.6 °C 3.7 °C 1015.1 hPa East 11.9 km/h 16.9 km/h 94 % 0.0 mm
14:15 4.6 °C 3.7 °C 1015.1 hPa East 12.2 km/h 16.3 km/h 94 % 0.0 mm
14:20 4.6 °C 3.7 °C 1015.1 hPa East 14.0 km/h 14.0 km/h 94 % 0.0 mm
14:25 4.5 °C 3.6 °C 1015.1 hPa ESE 10.5 km/h 16.3 km/h 94 % 0.0 mm
14:30 4.5 °C 3.6 °C 1015.1 hPa East 11.1 km/h 16.3 km/h 94 % 0.0 mm
14:36 4.5 °C 3.6 °C 1015.1 hPa ESE 10.5 km/h 13.7 km/h 94 % 0.0 mm
14:41 4.5 °C 3.6 °C 1015.1 hPa ENE 8.7 km/h 13.7 km/h 94 % 0.0 mm
14:46 4.5 °C 3.6 °C 1015.1 hPa ESE 13.0 km/h 16.6 km/h 94 % 0.0 mm
14:47 4.5 °C 3.6 °C 1015.1 hPa East 9.7 km/h 16.6 km/h 94 % 0.0 mm
14:52 4.4 °C 3.6 °C 1015.1 hPa East 11.1 km/h 15.8 km/h 94 % 0.0 mm
14:57 4.4 °C 3.6 °C 1015.1 hPa East 15.8 km/h 15.8 km/h 94 % 0.0 mm
15:02 4.4 °C 3.6 °C 1015.1 hPa ESE 6.9 km/h 15.8 km/h 94 % 0.0 mm
15:07 4.5 °C 3.6 °C 1015.1 hPa ESE 12.2 km/h 15.8 km/h 94 % 0.0 mm
15:12 4.5 °C 3.6 °C 1015.1 hPa East 16.3 km/h 16.3 km/h 94 % 0.0 mm
15:17 4.5 °C 3.6 °C 1015.1 hPa ESE 10.1 km/h 16.3 km/h 94 % 0.0 mm
15:22 4.6 °C 3.7 °C 1015.1 hPa ESE 9.7 km/h 16.3 km/h 94 % 0.0 mm
15:27 4.6 °C 3.7 °C 1015.1 hPa SE 12.2 km/h 16.3 km/h 94 % 0.0 mm
15:32 4.7 °C 3.8 °C 1015.1 hPa East 11.9 km/h 16.9 km/h 94 % 0.0 mm
15:37 4.7 °C 3.8 °C 1015.1 hPa SE 12.6 km/h 16.9 km/h 94 % 0.0 mm
15:42 4.6 °C 3.6 °C 1015.1 hPa East 14.3 km/h 16.3 km/h 93 % 0.0 mm
15:47 4.6 °C 3.6 °C 1015.1 hPa ENE 9.3 km/h 16.3 km/h 93 % 0.0 mm
15:52 4.6 °C 3.6 °C 1015.1 hPa ESE 6.4 km/h 14.3 km/h 93 % 0.0 mm
15:57 4.7 °C 3.8 °C 1015.1 hPa ESE 8.7 km/h 12.6 km/h 94 % 0.0 mm
16:02 4.7 °C 3.7 °C 1015.1 hPa ESE 9.3 km/h 12.6 km/h 93 % 0.0 mm
16:07 4.7 °C 3.7 °C 1015.1 hPa ESE 4.7 km/h 14.0 km/h 93 % 0.0 mm
16:12 4.7 °C 3.7 °C 1015.1 hPa SE 7.9 km/h 14.0 km/h 93 % 0.0 mm
16:17 4.7 °C 3.7 °C 1015.1 hPa Calm   10.5 km/h 93 % 0.0 mm
16:22 4.8 °C 3.8 °C 1015.1 hPa SE 7.9 km/h 10.1 km/h 93 % 0.0 mm
16:27 4.7 °C 3.7 °C 1015.1 hPa ESE 5.8 km/h 11.9 km/h 93 % 0.0 mm
16:32 4.7 °C 3.7 °C 1015.1 hPa ESE 9.3 km/h 11.9 km/h 93 % 0.0 mm
16:37 4.7 °C 3.7 °C 1015.1 hPa ESE 9.3 km/h 12.2 km/h 93 % 0.0 mm
16:42 4.7 °C 3.7 °C 1015.1 hPa ESE 10.1 km/h 12.2 km/h 93 % 0.0 mm
16:47 4.6 °C 3.6 °C 1015.1 hPa ESE 5.8 km/h 13.7 km/h 93 % 0.0 mm
16:52 4.6 °C 3.6 °C 1015.1 hPa East 5.8 km/h 13.7 km/h 93 % 0.0 mm
16:57 4.6 °C 3.6 °C 1015.1 hPa ESE 9.7 km/h 13.0 km/h 93 % 0.0 mm
17:02 4.5 °C 3.5 °C 1015.1 hPa ESE 12.2 km/h 16.6 km/h 93 % 0.0 mm
17:07 4.4 °C 3.2 °C 1015.1 hPa East 7.9 km/h 16.6 km/h 92 % 0.0 mm
17:12 4.3 °C 3.1 °C 1015.1 hPa ESE 7.9 km/h 13.7 km/h 92 % 0.0 mm
17:17 4.3 °C 3.3 °C 1015.1 hPa ESE 6.4 km/h 13.7 km/h 93 % 0.0 mm
17:22 4.2 °C 3.2 °C 1015.1 hPa SE 6.9 km/h 13.7 km/h 93 % 0.0 mm
17:27 4.2 °C 3.2 °C 1015.1 hPa ESE 6.1 km/h 11.9 km/h 93 % 0.0 mm
17:32 4.2 °C 3.2 °C 1015.1 hPa ESE 7.9 km/h 10.1 km/h 93 % 0.0 mm
17:37 4.1 °C 3.1 °C 1014.1 hPa SE 6.1 km/h 14.0 km/h 93 % 0.0 mm
17:42 4.1 °C 3.1 °C 1014.1 hPa ESE 6.4 km/h 14.0 km/h 93 % 0.0 mm
17:47 4.1 °C 3.2 °C 1014.1 hPa ESE 6.1 km/h 9.0 km/h 94 % 0.0 mm
17:52 4.1 °C 3.2 °C 1015.1 hPa SE 6.9 km/h 12.6 km/h 94 % 0.0 mm
17:57 4.1 °C 3.2 °C 1015.1 hPa SE 6.9 km/h 12.6 km/h 94 % 0.0 mm
18:02 4.1 °C 3.2 °C 1015.1 hPa ESE 9.7 km/h 11.6 km/h 94 % 0.0 mm
18:07 4.1 °C 3.2 °C 1015.1 hPa SE 4.0 km/h 11.1 km/h 94 % 0.0 mm
18:12 4.1 °C 3.2 °C 1015.1 hPa SE 9.7 km/h 10.5 km/h 94 % 0.0 mm
18:17 4.1 °C 3.2 °C 1015.1 hPa Calm   10.5 km/h 94 % 0.0 mm
18:22 4.1 °C 3.2 °C 1015.1 hPa ESE 4.3 km/h 9.7 km/h 94 % 0.0 mm
18:27 4.2 °C 3.5 °C 1015.1 hPa ESE 10.5 km/h 10.5 km/h 95 % 0.0 mm
18:32 4.2 °C 3.5 °C 1015.1 hPa SE 5.0 km/h 10.5 km/h 95 % 0.0 mm
18:37 4.2 °C 3.5 °C 1015.1 hPa SSE 3.2 km/h 10.5 km/h 95 % 0.0 mm
18:42 4.2 °C 3.5 °C 1015.1 hPa SE 7.6 km/h 9.3 km/h 95 % 0.0 mm
18:47 4.2 °C 3.5 °C 1015.1 hPa East 9.0 km/h 9.3 km/h 95 % 0.0 mm
18:52 4.2 °C 3.5 °C 1014.1 hPa SSE 6.4 km/h 9.0 km/h 95 % 0.0 mm
18:57 4.2 °C 3.5 °C 1014.1 hPa East 8.7 km/h 9.7 km/h 95 % 0.0 mm
19:02 4.2 °C 3.5 °C 1014.1 hPa SE 9.3 km/h 10.5 km/h 95 % 0.0 mm
19:07 4.2 °C 3.5 °C 1015.1 hPa ESE 4.0 km/h 10.5 km/h 95 % 0.0 mm
19:12 4.2 °C 3.5 °C 1015.1 hPa ESE 9.7 km/h 10.8 km/h 95 % 0.0 mm
19:17 4.2 °C 3.5 °C 1015.1 hPa ESE 6.9 km/h 10.8 km/h 95 % 0.0 mm
19:22 4.2 °C 3.5 °C 1015.1 hPa ESE 4.0 km/h 10.1 km/h 95 % 0.0 mm
19:27 4.1 °C 3.4 °C 1015.1 hPa ESE 9.3 km/h 11.9 km/h 95 % 0.0 mm
19:32 4.1 °C 3.4 °C 1015.1 hPa ESE 9.7 km/h 11.9 km/h 95 % 0.0 mm
19:37 4.0 °C 3.3 °C 1015.1 hPa ESE 9.3 km/h 10.5 km/h 95 % 0.0 mm
19:42 4.0 °C 3.3 °C 1015.1 hPa ESE 9.3 km/h 11.1 km/h 95 % 0.0 mm
19:47 4.0 °C 3.3 °C 1015.1 hPa ESE 10.5 km/h 14.0 km/h 95 % 0.0 mm
19:52 4.1 °C 3.4 °C 1016.1 hPa ESE 11.9 km/h 14.0 km/h 95 % 0.0 mm
19:57 4.1 °C 3.4 °C 1016.1 hPa ESE 10.5 km/h 12.6 km/h 95 % 0.0 mm
20:02 4.1 °C 3.4 °C 1016.1 hPa ESE 9.0 km/h 12.6 km/h 95 % 0.0 mm
20:07 4.1 °C 3.4 °C 1015.1 hPa ESE 9.0 km/h 13.7 km/h 95 % 0.0 mm
20:12 4.1 °C 3.4 °C 1015.1 hPa East 7.6 km/h 13.7 km/h 95 % 0.0 mm
20:17 4.0 °C 3.3 °C 1015.1 hPa SE 9.0 km/h 10.5 km/h 95 % 0.0 mm
20:22 4.1 °C 3.4 °C 1015.1 hPa SSE 7.9 km/h 13.7 km/h 95 % 0.0 mm
20:27 4.1 °C 3.4 °C 1015.1 hPa ESE 5.0 km/h 13.7 km/h 95 % 0.0 mm
20:32 4.1 °C 3.4 °C 1015.1 hPa SE 10.5 km/h 10.5 km/h 95 % 0.0 mm
20:37 4.1 °C 3.4 °C 1015.1 hPa ESE 5.0 km/h 12.2 km/h 95 % 0.0 mm
20:42 4.1 °C 3.4 °C 1015.1 hPa SE 9.0 km/h 13.0 km/h 95 % 0.0 mm
20:47 4.1 °C 3.4 °C 1015.1 hPa ESE 6.4 km/h 13.0 km/h 95 % 0.0 mm
20:52 4.1 °C 3.4 °C 1015.1 hPa SE 7.6 km/h 12.6 km/h 95 % 0.0 mm
20:57 4.1 °C 3.4 °C 1015.1 hPa ESE 9.0 km/h 12.6 km/h 95 % 0.0 mm
21:02 4.1 °C 3.4 °C 1015.1 hPa ESE 6.4 km/h 10.5 km/h 95 % 0.0 mm
21:07 4.1 °C 3.4 °C 1016.1 hPa ESE 5.8 km/h 11.6 km/h 95 % 0.0 mm
21:12 4.0 °C 3.3 °C 1016.1 hPa ESE 6.9 km/h 11.9 km/h 95 % 0.0 mm
21:17 4.0 °C 3.3 °C 1016.1 hPa ESE 11.9 km/h 13.7 km/h 95 % 0.0 mm
21:22 3.9 °C 3.2 °C 1016.1 hPa ESE 9.0 km/h 13.7 km/h 95 % 0.0 mm
21:27 3.9 °C 3.2 °C 1015.1 hPa ESE 9.0 km/h 11.9 km/h 95 % 0.0 mm
21:32 3.9 °C 3.2 °C 1015.1 hPa ESE 12.2 km/h 12.2 km/h 95 % 0.0 mm
21:37 3.9 °C 3.2 °C 1015.1 hPa ESE 7.9 km/h 12.2 km/h 95 % 0.0 mm
21:42 3.9 °C 3.2 °C 1015.1 hPa ESE 6.9 km/h 13.0 km/h 95 % 0.0 mm
21:47 3.9 °C 3.2 °C 1015.1 hPa East 5.0 km/h 13.0 km/h 95 % 0.0 mm
21:52 3.9 °C 3.3 °C 1015.1 hPa ESE 6.1 km/h 12.2 km/h 96 % 0.0 mm
21:57 3.9 °C 3.3 °C 1015.1 hPa SSE 6.9 km/h 11.9 km/h 96 % 0.0 mm
22:02 3.9 °C 3.3 °C 1015.1 hPa ESE 6.9 km/h 10.5 km/h 96 % 0.0 mm
22:07 3.9 °C 3.3 °C 1014.1 hPa East 6.1 km/h 14.0 km/h 96 % 0.0 mm
22:12 3.9 °C 3.3 °C 1014.1 hPa ESE 5.8 km/h 14.0 km/h 96 % 0.0 mm
22:17 3.8 °C 3.4 °C 1014.1 hPa SE 11.9 km/h 11.9 km/h 97 % 0.0 mm
22:22 3.8 °C 3.4 °C 1014.1 hPa ESE 10.5 km/h 13.0 km/h 97 % 0.0 mm
22:27 3.8 °C 3.4 °C 1014.1 hPa ESE 7.9 km/h 13.0 km/h 97 % 0.0 mm
22:32 3.9 °C 3.3 °C 1014.1 hPa ESE 12.2 km/h 15.1 km/h 96 % 0.0 mm
22:37 3.9 °C 3.5 °C 1014.1 hPa SE 6.4 km/h 15.1 km/h 97 % 0.0 mm
22:42 3.9 °C 3.5 °C 1014.1 hPa East 1.4 km/h 13.7 km/h 97 % 0.0 mm
22:47 3.8 °C 3.4 °C 1014.1 hPa East 6.1 km/h 9.0 km/h 97 % 0.0 mm
22:52 3.8 °C 3.4 °C 1014.1 hPa East 9.7 km/h 10.8 km/h 97 % 0.0 mm
22:57 3.9 °C 3.5 °C 1014.1 hPa SE 12.6 km/h 13.7 km/h 97 % 0.0 mm
23:02 3.9 °C 3.5 °C 1014.1 hPa SE 7.9 km/h 13.7 km/h 97 % 0.0 mm
23:07 3.9 °C 3.5 °C 1014.1 hPa SE 7.9 km/h 11.9 km/h 97 % 0.0 mm
23:12 3.9 °C 3.5 °C 1014.1 hPa SE 7.9 km/h 10.1 km/h 97 % 0.0 mm
23:17 3.9 °C 3.5 °C 1014.1 hPa South 7.9 km/h 10.5 km/h 97 % 0.0 mm
23:22 3.9 °C 3.5 °C 1014.1 hPa SE 6.4 km/h 10.5 km/h 97 % 0.0 mm
23:27 3.9 °C 3.5 °C 1014.1 hPa ESE 6.4 km/h 9.3 km/h 97 % 0.0 mm
23:32 3.9 °C 3.5 °C 1014.1 hPa SSE 1.4 km/h 7.9 km/h 97 % 0.0 mm
23:37 3.9 °C 3.5 °C 1014.1 hPa SE 1.4 km/h 6.9 km/h 97 % 0.0 mm
23:42 3.9 °C 3.5 °C 1014.1 hPa East 3.2 km/h 7.6 km/h 97 % 0.0 mm
23:47 3.9 °C 3.5 °C 1014.1 hPa Calm   7.6 km/h 97 % 0.0 mm
23:52 4.0 °C 3.6 °C 1014.1 hPa East 3.2 km/h 7.6 km/h 97 % 0.0 mm
23:57 4.0 °C 3.7 °C 1014.1 hPa ESE 4.0 km/h 7.6 km/h 98 % 0.0 mm
Le Gheer Warneton
Courtoisie de Weather Underground - 2.25 mb

Mise a jour : 17-12-17 08:56:12
Généré par Cumulus 1.9.4 (1099)